Regional Weather Roundup
Issued by NWS

Home | Current Version | Previous Version | Graphics & Text | Print | Product List | Glossary On
Versions: 1 2 3 4 5 6 7 8 9 10 11 12 13 14 15 16 17 18 19 20 21 22 23 24 25 26 27 28 29 30 31 32 33 34 35 36 37 38 39 40 41 42 43 44 45 46 47 48 49 50
000
ASUS45 KSLC 300110
RWRUT

UTAH REGIONAL WEATHER ROUNDUP
NATIONAL WEATHER SERVICE SALT LAKE CITY UT
700 PM MDT MON SEP 29 2014

UTZ001>011-023>025-300200-

NORTHERN UTAH

CITY           SKY/WX    TMP DP  RH WIND       PRES   REMARKS
HILL AFB       MOCLDY    59  44  59 W8        29.99S
LOGAN          NOT AVBL
OGDEN          CLOUDY    60  43  53 W6        29.97S
PROVO AIRPORT  PTCLDY    54  43  66 SE7       30.02R
SALT LAKE CITY TSTM      54  49  83 NW14G20   30.01R
VERNAL         MOCLDY    54  44  69 S7        29.97R
WENDOVER       CLOUDY    61  39  44 W13       29.98S
HEBER CITY     CLOUDY    52  37  58 SW10      30.01S
WEST JORDAN    CLOUDY    52  46  82 SE6       30.00S

$$

UTZ012>022-026-027-300200-

SOUTHERN UTAH

CITY           SKY/WX    TMP DP  RH WIND       PRES   REMARKS
BRYCE CANYON   CLOUDY    50  33  52 NW8       30.11S
CEDAR CITY     CLOUDY    58  39  49 SW9       30.03S
MILFORD        CLOUDY    58  45  62 SE6       30.00S
MOAB/CYNLANDS  CLEAR     57  45  64 S5        29.98R
PRICE          MOCLDY    54  42  64 SE3       30.01S
ST GEORGE      MOCLDY    73  37  27 W10       29.95S
KANAB            N/A     61  36  39 SW7       30.05S

$$

REGIONAL REPORTS     COLORADO/ARIZONA

CITY           SKY/WX    TMP DP  RH WIND       PRES   REMARKS
CRAIG, CO      CLOUDY    49  40  71 S10       29.99S
GRAND JUNCTION MOCLDY    50  44  80 W3        30.02R
RIFLE          CLOUDY    48  45  89 VRB3      30.03S
MONTROSE       MOCLDY    48  44  86 SW3       30.07S
CORTEZ         CLEAR     55  37  50 W7        30.05F
PAGE, AZ       NOT AVBL
GRAND CANYON   CLEAR     57  35  43 VRB3      30.12R
KINGMAN        NOT AVBL
FLAGSTAFF      CLEAR     56  31  38 SW8       30.13R

$$

REGIONAL REPORTS    NEVADA/IDAHO/WYOMING

CITY           SKY/WX    TMP DP  RH WIND       PRES   REMARKS
LAS VEGAS, NV  PTCLDY    82  34  17 VRB3      29.85S
ELY            CLOUDY    52  38  58 W5        30.09R
ELKO           CLOUDY    51  44  77 SW7       30.06R
POCATELLO, ID  MOCLDY    54  46  74 S9        29.97S
BURLEY         CLOUDY    53  47  79 W5        29.96S
EVANSTON, WY   PTCLDY    47  37  68 W9        30.04R
ROCK SPRINGS   MOCLDY    49  37  63 W6        29.99S

$$


USA.gov is the U.S. government's official web portal to all federal, state and local government web resources and services.